Regional Weather Roundup
Issued by NWS Pendleton, OR

Home | Current Version | Previous Version | Text Only | Print | Product List | Glossary On
Versions: 1 2 3 4 5 6 7 8 9 10 11 12 13 14 15 16 17 18 19 20 21 22 23 24 25 26 27 28 29 30 31 32 33 34 35 36 37 38 39 40 41 42 43 44 45 46 47 48 49 50
000
ASUS46 KPDT 260825
RWRPDT
PENDLETON REGIONAL WEATHER ROUNDUP
NATIONAL WEATHER SERVICE PENDLETON OREGON
100 AM PDT THU MAY 26 2016

NOTE: FAIR INDICATES FEW OR NO CLOUDS BELOW 12,000 FEET WITH NO
SIGNIFICANT WEATHER AND/OR OBSTRUCTIONS TO VISIBILITY.

# INDICATES UNOFFICIAL STATION AND DATA

WAZ520-260910-
EAST SLOPES OF WASHINGTON CASCADES

CITY            SKY/WX      TMP DP  RH  WIND    PRES   REMARKS
#CLE ELUM HS    N/A         51  42  71  W7      30.04S
#CLE ELUM 2NW   N/A         49  42  77  W1      N/A
#GLENWOOD       N/A         38  36  92  CALM    30.08R
#MANASTASH CYN  N/A         43  36  76  CALM    30.02F
#NELSON 3SW     N/A         48  40  74  S1      30.24F
#NILE           N/A         50  41  71  N1      29.35S
#TEANAWAY 4NE   N/A         48  43  83  N1      N/A
#TROUT LAKE 1NE N/A         51  43  74  W7      30.09R
#TROUT LAKE 1E  N/A         52  43  71  CALM    30.07R
$$

WAZ521-260910-
SIMCOE HIGHLANDS

CITY            SKY/WX      TMP DP  RH  WIND    PRES   REMARKS
#CENTERVILLE 1SWN/A         51  43  74  W13     30.02S
#GOLDENDALE 1NE N/A         50  35  56  SW2     N/A
#GOLDENDALE 4W  N/A         52  48  86  W7      30.11S
#GOODNOE HILLS  N/A         55  46  72  W20     29.96R
#LYLE 6NE       N/A         51  46  83  SW12    30.05S
$$

WAZ026-260910-
KITTITAS VALLEY

CITY            SKY/WX      TMP DP  RH  WIND    PRES   REMARKS
ELLENSBURG AP   CLEAR       54  41  61  NW18    30.04F
#ELLENSBURG CWU N/A         53  41  64  N7      29.95F
#ELLENSBURG 3NE N/A         52  43  71  N9      30.03F
#ELLENSBURG     N/A         56  44  64  NW1     N/A
#ELLENSBURG 1E  N/A         52  N/A N/A CALM    N/A
#ELLENSBURG 13S N/A         55  41  59  S1      N/A
#KITTITAS 3S    N/A         44  39  82  CALM    30.00S
#THORP 6N       N/A         50  42  74  W23G38  30.02F
$$

WAZ027-260910-
YAKIMA VALLEY

CITY            SKY/WX      TMP DP  RH  WIND    PRES   REMARKS
SUNNYSIDE AP    CLEAR       55  40  57  N3      30.03R
YAKIMA AIRPORT  CLEAR       62  38  41  NW15    30.04S
YAKIMA-VAGABOND CLEAR       55  39  55  N5      30.03S
#DONALD 2NE     N/A         58  22  25  W1      28.87S
#GRANDVIEW      N/A         59  39  47  W2      30.02S
#MABTON         N/A         58  44  60  SW3     30.03R
#NACHES 2SW     N/A         55  43  64  W14     30.05R
#TERRACE HTS    N/A         55  40  57  N1      29.97S
#TOPPENISH      N/A         59  42  53  CALM    29.93S
#WEST VALLEY    N/A         58  40  51  W2      29.99S
#W YAKIMA       N/A         57  41  55  W3      30.00S
#WHITE SWAN 5E  N/A         52  44  74  CALM    30.01S
#WILEY CITY 3W  N/A         47  35  63  CALM    30.00S
$$

WAZ028-260910-
LOWER COLUMBIA BASIN...WASHINGTON

CITY            SKY/WX      TMP DP  RH  WIND    PRES   REMARKS
HANFORD         CLEAR       62  37  39  W15G24  30.02R
PASCO           CLEAR       59  46  62  S9      30.04R
PROSSER AWOS    N/A         59  43  55  SW8     30.06S
RICHLAND AWOS   CLEAR       58  45  62  S6      30.04R
#BENTON CITY    N/A         56  43  62  NW3     29.92R
#CONNELL 5N     N/A         51  43  74  SW3     29.99R
#CONNELL 5NW    N/A         52  44  74  CALM    29.96R
#ELTOPIA 6NW    N/A         57  44  62  CALM    28.99R
#KAHLOTUS       N/A         54  47  77  SW9     29.98S
#KENNEWICK 3S   N/A         55  46  72  N7      30.01R
#PATERSON       N/A         57  49  75  NW6     30.03R
#SAGEMOOR 2W    N/A         55  45  69  CALM    29.87R
#TOUCHET 2S     N/A         58  45  62  SW13    30.01R
#WEST PASCO     N/A         58  46  64  S1      30.09R
$$

WAZ029-260910-
FOOTHILLS OF THE BLUES...WASHINGTON

CITY            SKY/WX      TMP DP  RH  WIND    PRES   REMARKS
WALLA WALLA AP  MOCLDY      56  43  62  S10     30.07S
#CLYDE 6NW      N/A         53  45  74  S12     30.01R
#DAYTON SCHOOL  N/A         57  40  53  E5      30.07R
#LOWDEN 2SE     N/A         58  45  62  SW2     30.03R
#PLEASANT VIEW 1N/A         52  45  77  SW12    30.03R
#PRESCOTT       N/A         56  47  72  CALM    30.02R
#SUDBURY        N/A         62  N/A N/A CALM    N/A
#WHITMAN COLLEGEN/A         57  45  64  SE6     30.10R
#WAITSBURG 8N   N/A         53  20  27  S14     29.85F
#WALLA WALLA 5E N/A         55  45  69  SW8     N/A
#WALLA WALLA U  N/A         59  45  60  CALM    30.05R
#WHITMAN MISSIONN/A         59  46  62  CALM    30.07R
$$

WAZ030-260910-
BLUE MOUNTAINS...WASHINGTON

CITY            SKY/WX      TMP DP  RH  WIND    PRES   REMARKS
#DIXIE 5SE      N/A         64  45  50  SW6     30.02S
$$

ORZ009-041-WAZ024-260910-
COLUMBIA RIVER GORGE

CITY            SKY/WX      TMP DP  RH  WIND    PRES   REMARKS
HOOD RIVER AP   MOCLDY      55  46  72  NW15    30.14S
THE DALLES AP   CLEAR       60  44  55  W16     30.10R
#ARLINGTON AIRPON/A         56  46  69  W10     30.06R
#CELILO DOT     N/A         60  45  58  SW10    N/A
#LYLE           N/A         58  49  72  W18G29  30.11S
#MARYHILL 2W    N/A         55  48  77  S5      N/A
#MOSIER 1S      N/A         54  38  55  W6      30.09S
#MURDOCK        N/A         58  48  69  NW12    30.06S
#RUFUS DOT      N/A         61  49  65  W26     N/A
#SMITHIVILLE    N/A         58  48  69  W16G25  30.03F

$$

ORZ510-260910-
NORTH CENTRAL OREGON

CITY            SKY/WX      TMP DP  RH  WIND    PRES   REMARKS
#ANTELOPE       N/A         40  36  85  N2      29.98S
#CHENOWITH 1W   N/A         51  44  77  NW32    N/A
#COW CYN RST AREN/A         47  N/A N/A SW6     N/A
#DUFUR 9E       N/A         51  44  77  W16G25  30.12F
#GRASS VALLEY   N/A         46  42  86  SE2     N/A
#GRASS VALLEY 1SN/A         45  41  86  SW1     30.05S
#KENT DOT       N/A         44  37  76  N8      N/A
#MAUPIN SCHOOL  N/A         52  42  69  CALM    30.14S
#MORO SCHOOL    N/A         53  48  83  W9      30.10S
#SHANIKO 4NW    N/A         45  -58  1  W10     30.13R
#TYGH VALLEY 2NEN/A         48  41  77  CALM    30.09R
#WAPANITIA AIRPON/A         51  43  74  W3      30.10S
#WASCO DOT      N/A         55  44  66  W8      N/A
#WASCO AIRPORT  N/A         53  43  69  W16     N/A
#WASCO 5NE      N/A         51  44  77  N2      30.04R
$$

ORZ511-260910-
CENTRAL OREGON

CITY            SKY/WX      TMP DP  RH  WIND    PRES   REMARKS
BEND AIRPORT    CLEAR       41  37  86  CALM    30.15F
MADRAS AIRPORT  CLEAR       48  41  77  S3      30.16S
PRINEVILLE AP   CLEAR       37  37  100 CALM    30.15F
REDMOND AIRPORT CLEAR       44  36  73  VRB5    30.15F
#ASHWOOD SCHOOL N/A         47  39  74  CALM    30.10S
#BEND 1SW       N/A         41  38  89  CALM    N/A
#BEND-AWBREY    N/A         44  40  86  E2      30.08F
#BEND-KIM LN    N/A         42  38  86  CALM    30.12F
#CULVER         N/A         45  38  76  CALM    30.07S
#CULVER 8W      N/A         41  39  93  CALM    30.12S
#LAKE BILLY CHINN/A         48  N/A N/A S5      30.19S
#MADRAS 4S      N/A         43  22  43  S6      30.19F
#POWELL BUTTE 3EN/A         42  38  86  SE2     N/A
#POWELL BUTTE   N/A         42  37  82  SW2     30.01F
#PRINEVILLE 3N  N/A         44  38  79  N2      30.09S
#WARM SPRINGS   N/A         47  39  74  CALM    30.11R

$$


ORZ509-260910-
EAST SLOPES OF OREGON CASCADES

CITY            SKY/WX      TMP DP  RH  WIND    PRES   REMARKS
SISTERS AWOS    N/A         48  37  65  SW10    30.12R
#BLUE BOX PASS  N/A         41  N/A N/A NW8     N/A
#CAMP SHERMAN   N/A         38  33  82  CALM    30.20S
#LA PINE DOT    N/A         42  34  73  SW2     N/A
#LA PINE 4NW    N/A         39  34  82  CALM    30.14S
#LAVA BUTTE DOT N/A         42  35  76  SE3     N/A
#SISTERS AIRPOR N/A         47  41  79  N5      30.17S
#SISTERS ODOT   N/A         39  N/A N/A E1      N/A
#SISTERS 1NW    N/A         45  34  65  N6      N/A
#SISTERS 3N     N/A         46  35  65  CALM    30.14R
#SUNRIVER       N/A         41  36  82  CALM    30.11S
#TUMALO 3W      N/A         43  38  82  N2      29.98S
#WANOGA BUTTE D N/A         40  38  92  CALM    N/A

$$

ORZ044-260910-
LOWER COLUMBIA BASIN...OREGON

CITY            SKY/WX      TMP DP  RH  WIND    PRES   REMARKS
HERMISTON       CLEAR       58  44  60  SW13    30.06R
#BOARDMAN SCHOOLN/A         58  47  67  S10     30.05R
#ECHO 8SW       N/A         57  43  59  SW12    30.07R
#I-84 EX 198 DOTN/A         58  41  53  E16     N/A
#UMATILLA SCHOOLN/A         56  51  83  W1      30.09S
#UMATILLA       N/A         58  44  60  S6      29.97R
$$

ORZ507-260910-
NORTHERN FOOTHILLS OF THE BLUES

CITY            SKY/WX      TMP DP  RH  WIND    PRES   REMARKS
PENDLETON AIRPT MOCLDY      55  40  57  S9      30.08R
#ADAMS 3WNW     N/A         49  42  77  S1      30.06S
#CAYUSE         N/A         55  43  64  SW7     30.05S
#HELIX SCHOOL   N/A         51  42  71  S8      30.05S
#HELIX 3N       N/A         48  42  80  S5      30.05S
#HOLDMAN 5SE    N/A         53  43  69  SW6     30.07R
#HOLDMAN 6E     N/A         52  42  69  N7      29.86R
#M-F GROVE ELEM N/A         55  42  61  CALM    30.06R
#M-FREEWATER 5SEN/A         56  44  64  CALM    30.08S
#PENDLETON DNTN N/A         58  36  44  SW7     30.10S
#PDT AQUATIC CTRN/A         57  36  45  S8      30.11S
#PDT SUNRIDGE   N/A         52  42  69  CALM    30.10R
#PENDLETON 7NW  N/A         56  42  59  W6      32.27S
#PILOT ROCK 1S  N/A         50  38  63  CALM    30.11R
#PILOT ROCK     N/A         49  39  68  W2      30.12S
#TUTUILLA       N/A         51  43  74  CALM    30.09R
#UMAPINE 2E     N/A         59  45  60  SW6     30.04S
#WESTON SCHOOL  N/A         52  41  66  NW6     29.98S

$$

ORZ508-260910-
SOUTHERN FOOTHILLS OF THE BLUES

CITY            SKY/WX      TMP DP  RH  WIND    PRES   REMARKS
LEXINGTON       CLEAR       52  43  71  S9      30.13S
#AJAX           N/A         52  37  56  S10     27.84S
#CONDON SCHOOL  N/A         45  40  82  SW3     30.06F
#CONDON 5W      N/A         45  39  79  SW7     30.09S
#FOSSIL SCHOOL  N/A         44  40  86  CALM    30.07S
#HEPPNER EOC    N/A         51  41  68  S3      30.02S
#HEPPNER 4NE    N/A         47  40  76  SW5     30.07S
#LEXINGTON 2SE  N/A         52  42  69  SW1     30.07S
#OLEX 4N        N/A         56  45  66  SW15G25 30.06R
#RUGGS 5NE      N/A         45  40  82  S6      30.27S
#RUGGS 2SW      N/A         46  40  79  SW7     30.09F

$$

ORZ502-503-260910-
BLUE MOUNTAINS

CITY            SKY/WX      TMP DP  RH  WIND    PRES   REMARKS
MEACHAM         CLEAR       42  37  82  CALM    30.12S
#BATTLE MTN DOT N/A         44  42  93  CALM    N/A
#CUTSFORTH PARK N/A         38  36  92  CALM    29.90F
#GREENHORN 9SW  N/A         37  35  92  CALM    26.31
#HARDMAN 10S    N/A         61  34  36  N5      30.22S
#HEPPNER 15SE   N/A         43  38  82  W2      30.03R
#LADD CYN SMT   N/A         46  38  73  N8      N/A
#LADD CREEK ODOTN/A         51  41  68  CALM    N/A
#LONG CREEK HS  N/A         44  42  93  CALM    N/A
#N POWDER DOT   N/A         48  43  83  CALM    N/A
#PIKES PEAK     N/A         48  39  71  SW18G26 27.99S WCI 41
#TOLLGATE       N/A         40  37  89  SW1     29.97S
#TROY SCHOOL    N/A         50  46  86  CALM    29.89S
#UKIAH          N/A         42  40  93  CALM    30.01R
#WESTON 4E      N/A         48  41  77  S6      30.01F
$$

ORZ505-260910-
JOHN DAY BASIN

CITY            SKY/WX      TMP DP  RH  WIND    PRES   REMARKS
JOHN DAY        N/A         N/A N/A N/A MISG    N/A
#DAYVILLE SCHOOLN/A         54  40  59  W3      30.09R
#MITCHELL       N/A         44  41  89  CALM    30.28S
#MITCHELL 8NW   N/A         46  36  68  SW2     30.27F
#MONUMENT HS    N/A         52  41  66  CALM    30.07R
#MT. VERNON 5SE N/A         49  41  74  W2      30.07S
#SPRAY SCHOOL   N/A         53  N/A N/A CALM    N/A
#WINLOCK        N/A         42  37  82  CALM    30.09S
$$

ORZ506-260910-
OCHOCO AND JOHN DAY HIGHLANDS

CITY            SKY/WX      TMP DP  RH  WIND    PRES   REMARKS
#HORSE RIDGE DO N/A         39  35  85  E2      N/A
#KEYES SMT DOT  N/A         43  36  76  NW3     N/A
#PAULINA SCHOOL N/A         48  39  71  W6      N/A
#PINE MTN OBS   N/A         35  34  96  CALM    N/A
#PRAIRIE CITY   N/A         44  41  89  CALM    30.24R
#SENECA         N/A         43  N/A N/A CALM    N/A
#SENECA 9NW     N/A         38  34  85  CALM    30.04R
$$

ORZ049-260910-
GRANDE RONDE VALLEY

CITY            SKY/WX      TMP DP  RH  WIND    PRES   REMARKS
LA GRANDE       CLEAR       54  36  50  NW15    30.08S
#COVE           N/A         49  46  89  E1      30.11S
#COVE SCHOOL    N/A         48  44  86  CALM    30.10S
#COVE 6NW       N/A         48  42  80  CALM    29.97R
#ELGIN 3N       N/A         51  38  61  NE2     30.06R
#ISLAND CITY 4N N/A         52  44  74  CALM    30.24S
#LADD CYN DOT   N/A         52  44  74  E3      N/A
#UNION 1S       N/A         53  42  66  NW2     29.95R
$$

ORZ050-260910-
WALLOWA COUNTY

CITY            SKY/WX      TMP DP  RH  WIND    PRES   REMARKS
JOSEPH AIRPORT  CLOUDY      48  45  89  CALM    30.11R
#ENTERPRISE AP  N/A         49  29  46  CALM    30.02S
#ENTERPRISE HS  N/A         50  45  83  CALM    30.09S
#IMNAHA SCHOOL  N/A         52  47  83  S1      30.05R
#IMNAHA 10S     N/A         51  45  80  SW3     30.05F
#JOSEPH 3N      N/A         46  39  76  CALM    30.11R
#JOSEPH 3W      N/A         47  44  89  CALM    29.93S
#LOSTINE        N/A         49  46  89  CALM    29.85S
#LOSTINE 3SE    N/A         49  45  86  CALM    30.08R
#MT HOWARD 8000 N/A         39  38  96  N1      30.15F
#PROMISE 1S     N/A         50  41  71  E6      30.11S
#WALLOWA SCHOOL N/A         53  42  66  CALM    30.05R



$$



USA.gov is the U.S. government's official web portal to all federal, state and local government web resources and services.